Regional Weather Roundup
Issued by NWS

Home | Current Version | Previous Version | Graphics & Text | Print | Product List | Glossary On
Versions: 1 2 3 4 5 6 7 8 9 10 11 12 13 14 15 16 17 18 19 20 21 22 23 24 25 26 27 28 29 30 31 32 33 34 35 36 37 38 39 40 41 42 43 44 45 46 47 48 49 50
000
ASUS43 KLOT 130106
RWRIL

ILLINOIS REGIONAL WEATHER ROUNDUP
NATIONAL WEATHER SERVICE CHICAGO/ROMEOVILLE IL
800 PM CDT SAT JUL 12 2014

NOTE: "FAIR" INDICATES FEW OR NO CLOUDS BELOW 12,000 FEET WITH NO
SIGNIFICANT WEATHER AND/OR OBSTRUCTIONS TO VISIBILITY.

* THESE STATIONS ARE NOT UNDER NWS QUALITY CONTROL. THEY ALSO MAY NOT
  REPORT WEATHER SUCH AS PRECIPITATION OR FOG.

ILZ001-002-007-009-015-016-024-130200-
NORTHWEST ILLINOIS

CITY           SKY/WX    TMP DP  RH WIND       PRES   REMARKS
MOLINE         MOCLDY    82  74  76 SW7       29.86F HX  88
STERLING*      CLOUDY    75  73  94 S5        29.86F
SAVANNA*       MOCLDY    77  72  83 CALM      29.84F
$$

ILZ003-004-008-010-011-017-018-130200-
NORTH CENTRAL ILLINOIS

CITY           SKY/WX    TMP DP  RH WIND       PRES   REMARKS
ROCKFORD       CLOUDY    78  72  81 S6        29.87F HX  80
FREEPORT*      CLOUDY    76  74  92 SE6       29.88F
ROCHELLE*      CLOUDY    78  74  88 S8        29.88F HX  80
DE KALB*       CLOUDY    76  73  91 SE7       29.90F
PERU*          CLOUDY    82  74  78 SW8       29.90F HX  87
$$

ILZ005-006-012>014-019>023-130200-
NORTHEAST ILLINOIS

CITY           SKY/WX    TMP DP  RH WIND       PRES   REMARKS
CHICAGO-OHARE  LGT RAIN  78  71  79 S5        29.90F HX  80
CHICAGO-MIDWAY CLOUDY    81  75  82 S5        29.91F HX  87
AURORA         LGT RAIN  78  74  87 SE5       29.90F FOG     HX  81
LANSING*       CLOUDY    77  72  85 CALM      29.93S
JOLIET*        CLOUDY    78  74  88 CALM      29.91F HX  81
WAUKEGAN       CLOUDY    77  70  79 S5        29.89F
DUPAGE AIRPORT LGT RAIN  78  74  87 S6        29.90F HX  81
KANKAKEE*      MOCLDY    79  76  90 S10       29.93S HX  83
WHEELING       CLOUDY    80  72  76 S8        29.91F HX  84
MORRIS*        CLOUDY    79  79  99 CALM      29.91S HX  84
ROMEOVILLE*    CLOUDY    77  75  93 SE3       29.91F
NORTHERLY ISL    N/A     76  71  85 S3          N/A
$$

LMZ740>746-130200-
SOUTHERN LAKE MICHIGAN

STATION/POSITION SKY/WX   TEMP    WIND        PRES    VSBY  WAVE
                          AIR SEA DIR/SP/G                  HT/PER
                          (F)     (DEG/KT/KT) (MB)    (MI)  (FT/S)
SOUTHERN BUOY              64 61  160/ 12/ 12 1012.8F         1/ 4
WAUKEGAN HARBOR            72     170/  7/ 10 1013.5S
HARRISON CRIB              75     170/  6/  7   N/A
BURNHAM HARBOR             72     130/  4/  7   N/A
CALUMET HARBOR             78     160/  3/  6 1014.0F
BURNS HARBOR               77     200/  9/ 13 1014.9S
MICHIGAN CITY              77     170/  7/ 10   N/A
$$

ILZ025>027-034>036-040-047-049-050-058-095>099-130200-
WEST-CENTRAL ILLINOIS

CITY           SKY/WX    TMP DP  RH WIND       PRES   REMARKS
QUINCY         CLEAR     84  73  69 SW10      29.95R HX  90
GALESBURG*     MOCLDY    82  75  79 S9        29.92R HX  88
MACOMB*        CLEAR     83  73  72 SW8       29.95S HX  89
JACKSONVILLE*  CLEAR     85  73  67 S9        29.96F HX  92
PITTSFIELD*    CLEAR     84  73  68 S5        29.97S HX  90
$$

ILZ028>032-037-038-041>044-048-051>054-059>061-130200-
CENTRAL ILLINOIS

CITY           SKY/WX    TMP DP  RH WIND       PRES   REMARKS
PONTIAC        MOCLDY    82  75  78 S10       29.92S HX  89
BLOOMINGTON    PTCLDY    80  74  82 S13       29.95F HX  84
DECATUR        CLEAR     84  75  74 SW8       29.97F HX  92
PEORIA         PTCLDY    85  73  67 S10       29.91F HX  91
LACON*         CLOUDY    82  73  73 S7        29.89F HX  88
LINCOLN*       CLEAR     84  73  69 S5        29.91F HX  90
SPRINGFIELD    CLEAR     86  73  65 S12       29.95F HX  93
TAYLORVILLE    PTCLDY    81  73  78 S6        29.97F HX  85
$$

ILZ033-039-045-046-055>057-062-063-130200-
EAST-CENTRAL ILLINOIS

CITY           SKY/WX    TMP DP  RH WIND       PRES   REMARKS
CHAMPAIGN      CLEAR     80  75  84 S7        29.98F HX  85
RANTOUL*       PTCLDY    81  74  79 S7        29.98S HX  87
MATTOON        PTCLDY    82  76  81 S7        29.98F HX  89
PARIS*         PTCLDY    78  75  89 S7        30.00F HX  82
$$

ILZ079-100>102-130200-
SOUTHWEST ILLINOIS

CITY           SKY/WX    TMP DP  RH WIND       PRES   REMARKS
ALTON          MOCLDY    86  73  66 S7        29.98F HX  93
CAHOKIA*       PTCLDY    87  74  64 S7        29.98F HX  95
SPARTA*        CLEAR     82  73  74 S6        30.02F HX  88
$$

ILZ064>066-069>071-074>076-080>082-084>086-088>090-092>094-130200-
SOUTH-CENTRAL ILLINOIS

CITY           SKY/WX    TMP DP  RH WIND       PRES   REMARKS
CARBONDALE     MOCLDY    86  75  69 S12       30.02F HX  95
CAIRO*         PTCLDY    87  73  62 S5        30.05F HX  93
MARION         MOCLDY    86  75  70 S14       30.03F HX  95
MT. VERNON     PTCLDY    84  73  70 S8        30.02F HX  91
CENTRALIA*     CLEAR     83  72  70 S8        30.01F HX  88
SALEM*         CLEAR     86  75  70 S10       30.01F HX  95
METROPOLIS*    PTCLDY    84  69  59 S5        30.05F HX  88
$$

ILZ067-068-072-073-078-083-087-091-130200-
SOUTHEAST ILLINOIS

CITY           SKY/WX    TMP DP  RH WIND       PRES   REMARKS
FLORA*         PTCLDY    83  73  71 S9        30.02S HX  89
HARRISBURG*    MOCLDY    84  75  73 S7        30.05F HX  92
ROBINSON*      PTCLDY    83  76  78 S8        30.02F HX  91
CARMI*         PTCLDY    82  76  81 S6        30.03F HX  90
$$

ABBREVIATIONS USED IN REMARKS
   TC - TEMPERATURE IN CELSIUS
  WCI - WIND CHILL INDEX
   HX - HEAT INDEX
  VSB - VISIBILITY
$$




USA.gov is the U.S. government's official web portal to all federal, state and local government web resources and services.